Wind_Speed
54 55 55 56 57 59 59 58 58 57 57 55 54 52 47 44 44 42 42 41 39 38 42 44 40 37 35 35 39 44 49 50 49 46 39 34 36 37 37 36 35 32 31 30 31 31 30 28 28 30 33 34 34 33 32 31 30 29 29 28 26 25 24 26 28 28 28 28 28 27 25 24 24 26 27 28 28 27 26 26 27 27 26 23 20 20
50 51 53 53 55 58 60 58 56 55 54 52 51 51 48 46 47 47 45 43 42 42 44 41 35 31 29 32 36 38 40 44 44 42 37 34 33 32 30 28 26 25 25 27 28 28 28 28 31 33 34 33 31 29 28 27 28 27 27 25 23 23 24 26 27 27 26 25 24 23 23 23 24 26 26 27 26 25 25 25 25 26 25 22 20 19
50 51 54 56 57 59 60 58 54 53 52 50 51 52 51 49 49 48 46 45 43 42 39 36 34 32 31 32 33 31 33 38 40 37 33 29 26 25 24 23 24 25 27 27 26 26 27 30 32 33 32 29 26 26 26 26 26 26 24 22 22 23 24 25 25 24 23 23 23 22 22 23 24 25 26 25 24 24 23 23 24 25 24 22 20 19
51 53 56 58 59 59 59 58 56 55 53 51 50 50 49 48 46 44 43 43 41 39 36 35 34 33 31 30 29 28 31 37 40 36 30 27 26 26 25 25 25 26 26 25 25 26 28 31 31 29 26 24 24 24 24 24 24 23 21 21 22 23 23 23 23 23 23 23 23 22 22 23 24 24 24 23 23 23 23 23 24 24 23 21 19 19
51 54 57 58 58 56 56 56 55 54 53 50 47 46 46 45 43 42 41 40 39 36 33 31 30 27 25 24 24 26 31 37 39 35 30 28 28 27 26 25 24 22 21 22 24 27 29 28 26 23 22 22 23 22 22 22 21 21 20 21 21 21 21 21 22 23 23 23 23 22 22 22 23 23 22 22 22 23 22 22 23 23 22 21 19 18
53 55 57 57 56 54 53 52 49 48 48 45 43 43 43 42 41 40 38 37 36 33 30 28 26 24 22 22 24 26 30 34 34 31 29 28 26 23 22 22 20 18 19 22 24 25 24 22 20 20 21 21 20 20 20 20 20 20 20 20 20 20 21 22 22 23 23 23 22 21 20 21 21 21 21 22 22 22 22 21 21 22 22 20 18 18
55 55 56 55 54 50 48 46 43 43 43 42 42 42 41 40 40 39 36 33 31 29 28 27 24 23 25 25 25 27 29 30 29 27 25 24 22 20 19 19 18 19 21 22 20 19 18 17 17 18 19 19 19 19 20 19 19 20 20 20 20 21 21 22 23 23 22 22 21 20 20 20 20 19 20 22 22 21 21 20 20 21 21 20 18 18
53 52 51 49 47 43 42 40 37 37 37 38 39 38 38 39 38 36 32 28 26 25 26 25 21 20 23 24 25 25 24 24 24 23 21 19 18 18 19 19 19 20 20 18 16 15 15 15 16 16 17 18 19 20 20 20 20 19 20 20 21 22 22 22 23 22 21 21 20 20 19 19 18 19 20 21 20 19 19 19 19 19 19 19 18 17
46 45 43 40 38 36 36 34 31 32 34 35 36 36 36 35 34 32 28 25 26 26 27 25 22 20 19 21 23 22 20 20 20 19 17 16 16 18 19 19 19 18 17 15 15 15 15 15 15 16 17 18 20 20 20 20 20 20 21 21 22 22 22 22 21 21 20 20 20 20 19 19 18 19 20 20 18 17 17 18 18 18 18 18 18 17
38 38 37 36 34 34 34 33 32 33 34 34 33 33 34 33 32 30 27 27 29 29 32 31 27 23 20 21 23 21 18 18 17 16 16 16 18 18 18 18 17 16 15 15 15 14 14 14 16 17 17 18 19 20 20 20 20 21 21 22 22 21 21 21 21 21 20 20 20 20 19 19 18 19 19 18 17 17 17 17 17 18 18 18 17 17
37 37 37 35 34 33 33 33 33 33 32 31 29 29 29 29 29 27 28 31 29 29 33 33 29 25 21 21 22 21 18 16 16 17 18 19 18 17 17 16 16 15 14 14 14 14 14 15 16 16 17 18 19 19 18 19 20 20 20 20 19 19 20 21 21 20 20 19 19 20 19 19 18 18 18 17 17 17 17 17 17 18 18 18 18 18
33 33 33 32 30 30 29 28 29 30 29 29 29 28 27 27 26 25 29 31 26 26 31 31 29 26 22 20 19 20 19 19 19 19 19 19 18 17 16 15 15 15 14 14 14 14 14 15 16 17 18 19 19 18 18 18 18 17 17 17 18 19 20 20 20 20 19 19 19 19 19 19 18 18 17 16 16 17 17 17 17 17 18 18 18 18
27 27 28 28 28 28 27 26 26 26 26 27 28 28 27 28 27 27 30 29 24 26 28 26 27 24 19 18 19 19 20 21 21 21 20 19 18 17 16 15 15 14 14 15 14 14 14 15 16 17 18 19 19 18 17 16 15 15 15 16 18 18 19 19 19 19 19 19 19 20 20 20 20 19 17 15 15 15 16 16 17 17 18 18 18 18
27 26 27 28 28 29 29 26 25 24 25 25 25 25 25 25 26 27 28 26 23 23 23 22 23 20 15 16 19 19 21 21 22 21 20 19 17 17 17 16 15 15 14 14 13 13 13 13 15 16 18 19 19 19 18 16 15 15 16 17 18 18 18 18 18 18 19 20 21 22 22 22 21 20 18 16 15 15 16 16 17 18 18 18 18 18
25 25 26 27 27 28 28 26 24 24 23 23 23 20 18 18 20 22 23 21 18 19 20 20 20 19 15 16 18 19 21 21 21 21 21 20 19 18 18 16 15 15 13 13 12 13 13 14 14 16 17 18 19 19 19 18 18 18 18 18 18 18 18 18 18 18 18 19 20 21 22 22 22 21 20 18 17 16 16 17 18 18 18 19 19 19
25 23 24 24 23 24 25 24 22 20 19 19 19 17 15 14 15 17 19 18 16 18 21 21 21 19 15 15 16 17 20 20 20 21 20 20 19 17 17 15 15 14 12 12 11 12 12 14 15 17 18 18 18 19 18 18 18 18 18 18 18 18 18 18 18 17 17 18 19 20 21 22 22 23 22 21 19 18 17 17 18 18 18 19 19 19
21 20 20 22 23 23 22 20 18 19 19 19 17 15 15 14 13 14 17 19 17 17 20 21 21 18 15 14 14 13 15 16 18 19 18 17 17 16 15 14 14 14 13 13 12 12 13 13 15 17 18 18 18 18 18 17 17 18 18 18 18 19 19 18 17 16 17 18 19 20 21 22 22 23 23 22 21 19 18 17 17 18 19 19 19 20
18 17 18 19 21 22 20 18 15 17 21 21 18 16 16 15 14 15 15 16 16 16 18 19 19 19 16 14 15 14 14 15 16 17 17 17 16 15 15 15 15 15 15 14 14 14 13 14 15 16 17 18 18 18 18 18 18 18 19 19 20 19 18 18 18 17 17 18 19 20 20 21 22 22 22 22 20 19 18 17 17 17 18 17 18 19
19 19 18 16 19 21 20 19 17 16 19 22 21 18 16 16 15 15 15 14 14 15 17 17 16 18 18 17 17 19 20 19 17 17 17 17 16 15 15 15 16 15 15 14 14 14 14 14 15 15 16 17 17 17 18 18 19 20 21 21 21 20 18 18 19 18 18 18 19 20 20 20 21 21 21 20 18 18 17 18 17 16 15 15 16 18
22 20 19 17 19 20 18 19 19 17 17 20 24 21 18 18 17 15 14 14 15 15 16 16 15 16 18 17 18 19 20 19 17 17 17 16 16 16 16 16 16 16 15 15 15 15 15 15 15 15 15 15 16 16 17 18 19 19 20 20 19 19 18 18 18 18 18 18 19 19 20 20 20 20 20 19 18 19 19 19 17 15 14 14 17 19
23 23 23 20 21 20 16 16 18 18 16 18 23 23 20 18 16 16 16 15 14 14 14 16 17 17 18 18 18 18 17 17 16 17 18 17 16 16 16 16 17 17 17 17 17 17 16 16 15 15 15 15 16 17 17 18 19 19 20 19 19 19 19 19 19 20 19 18 18 19 20 21 20 20 20 20 19 20 21 20 18 16 16 17 19 20
23 24 25 23 23 21 17 16 18 18 17 17 22 23 21 18 15 15 15 14 13 14 14 16 17 18 19 19 19 18 17 17 17 17 18 17 16 17 17 18 18 18 17 17 16 17 17 16 16 16 17 18 18 19 20 20 21 21 22 22 22 21 21 21 21 22 20 17 18 20 20 20 20 21 21 19 19 20 21 20 20 20 20 21 21 22
23 23 25 25 26 23 18 17 19 20 18 17 20 24 24 20 16 15 15 15 14 15 16 16 17 18 19 19 19 19 18 18 17 17 17 17 17 18 18 18 17 16 16 16 16 16 16 17 18 18 19 20 21 21 22 22 22 23 23 24 24 24 23 23 24 24 20 17 18 18 18 18 19 20 21 19 20 20 21 22 23 24 23 24 24 25
25 24 24 25 26 25 21 18 18 21 22 19 19 23 25 23 20 17 17 16 15 14 13 14 15 17 18 18 19 19 19 19 19 19 19 18 18 18 18 17 16 16 16 16 17 17 18 18 20 22 22 23 23 23 23 23 23 24 24 25 26 26 26 25 25 24 21 19 18 17 16 17 18 20 21 21 22 22 24 25 26 27 26 27 28 27
25 27 26 24 24 26 24 19 15 19 23 23 22 22 24 24 21 17 17 17 17 16 15 14 15 16 17 17 18 19 19 19 19 20 20 20 19 18 18 18 18 19 19 18 19 19 21 22 23 23 23 22 23 23 24 25 25 26 26 26 26 27 26 26 26 25 23 22 22 21 20 18 20 23 24 25 25 25 26 28 28 29 30 30 29 27
26 27 28 25 23 25 27 25 20 19 20 23 25 24 24 24 22 20 19 19 19 19 19 19 19 19 19 19 20 19 19 19 19 20 20 20 21 21 21 21 22 22 22 22 22 22 23 24 23 22 21 20 22 24 25 27 28 28 27 27 27 27 27 27 27 25 24 24 25 25 24 22 24 27 27 27 28 28 29 30 30 32 35 34 31 28
25 25 26 26 25 26 29 31 29 25 21 20 24 26 25 24 22 20 20 20 21 21 22 23 22 23 23 22 22 21 20 20 20 21 22 22 23 24 24 25 26 26 26 25 24 23 24 24 24 24 24 24 26 28 29 29 29 29 28 28 28 28 28 28 27 26 26 26 26 26 26 27 28 30 30 30 30 30 31 31 32 34 36 38 37 33
24 24 23 25 28 29 30 33 33 30 25 21 22 24 25 23 21 20 19 19 19 20 22 24 24 25 25 25 24 23 23 23 23 23 24 25 26 27 28 28 28 28 27 26 25 24 24 25 26 27 27 28 29 30 30 29 29 28 28 28 28 29 29 29 29 29 29 30 30 30 30 31 32 33 33 33 31 31 31 31 33 35 37 38 39 38
26 25 23 23 26 30 30 32 33 32 29 24 22 24 25 24 23 23 22 22 21 21 22 25 25 26 26 27 27 27 27 27 27 28 29 29 30 31 31 30 29 28 27 26 25 25 26 27 28 28 28 28 29 29 29 28 28 28 28 29 29 29 29 29 29 30 31 32 33 33 33 34 34 35 36 36 36 36 36 36 36 37 38 38 39 39
27 27 26 24 25 27 29 31 32 32 31 28 26 25 26 26 26 25 25 25 25 26 26 27 27 28 28 29 29 29 30 30 31 32 32 33 33 32 31 29 28 27 26 25 25 26 27 28 29 28 28 27 27 27 27 28 28 28 28 28 28 28 28 29 29 29 30 32 33 34 34 34 34 35 36 38 39 40 41 41 42 42 41 40 40 40
27 27 27 27 26 27 28 30 31 31 31 31 29 28 28 28 27 27 26 26 26 27 28 28 29 29 30 30 30 31 31 32 32 33 33 33 32 31 29 28 26 25 24 24 24 26 27 28 28 28 27 27 27 27 27 27 27 26 25 24 24 24 25 27 28 29 30 31 32 33 34 35 35 37 38 40 42 43 44 44 45 45 44 42 40 40
27 27 27 27 27 27 28 29 30 31 31 31 30 29 28 27 27 26 26 27 27 28 28 29 30 30 30 31 31 31 31 31 31 31 31 31 30 29 27 26 24 23 22 23 25 26 27 26 26 26 26 26 26 26 25 25 25 24 23 22 22 21 22 24 25 27 28 29 30 31 32 33 34 35 37 39 40 41 41 41 42 42 42 41 40 40
28 28 27 26 26 26 27 27 27 27 28 28 27 27 26 26 26 27 27 28 28 29 30 30 30 30 30 30 29 28 27 27 27 28 29 29 28 27 27 25 24 22 23 25 26 26 25 24 24 24 25 25 25 25 24 24 24 24 24 24 22 22 22 23 24 25 26 27 29 30 31 31 31 32 33 34 35 35 36 37 38 38 38 38 39 40
31 29 29 28 27 27 27 27 26 25 24 24 25 25 25 25 26 27 27 28 29 29 29 29 29 28 28 27 26 25 23 23 24 25 26 27 27 27 26 26 25 24 25 26 27 25 23 21 22 22 23 23 24 24 24 25 25 26 25 25 24 23 23 23 24 25 26 27 27 29 30 31 31 32 32 33 34 34 35 35 36 37 37 37 37 39
34 33 32 31 30 30 30 29 27 25 25 24 24 24 24 25 26 27 27 28 28 28 27 25 25 25 26 26 25 23 23 22 22 22 23 23 24 26 27 27 26 26 26 27 27 25 24 23 23 23 23 24 24 24 24 25 26 27 28 28 27 26 26 26 26 27 27 28 28 28 29 30 31 31 32 33 34 34 35 36 36 36 36 37 37 38
36 36 36 35 34 33 33 31 30 28 27 26 26 26 26 27 27 28 28 27 27 27 26 24 23 24 25 25 25 24 23 23 22 21 20 20 21 23 25 27 27 27 28 27 26 27 27 27 27 26 25 25 26 26 26 27 28 29 30 30 30 30 30 30 30 30 31 31 31 31 31 31 31 32 32 33 34 35 35 36 36 36 36 36 37 38
37 38 38 38 37 37 35 34 33 32 30 29 28 28 29 28 28 28 28 28 28 28 26 24 23 23 23 24 24 24 23 23 24 23 22 20 20 21 23 25 27 28 28 27 27 27 28 29 29 29 28 28 27 28 29 29 29 30 30 31 31 32 32 32 33 33 34 34 35 35 35 35 35 35 35 35 35 36 36 36 36 36 36 36 36 37
39 39 39 38 39 39 38 37 36 34 33 31 31 31 31 29 28 28 28 28 30 31 29 27 25 24 23 23 24 25 24 23 24 26 25 24 22 22 23 24 26 27 27 28 28 29 29 30 31 31 30 29 29 29 30 30 30 31 31 32 32 33 34 34 34 35 35 36 36 37 38 38 37 37 37 37 37 38 38 38 37 37 37 37 37 37
41 41 40 39 39 39 39 39 37 36 34 34 34 33 32 30 29 28 28 30 32 32 31 29 28 26 25 24 24 24 24 23 26 29 29 27 26 25 25 26 26 27 28 29 30 31 32 32 33 33 32 32 32 32 32 33 33 33 33 34 34 35 36 36 37 37 37 38 38 38 39 39 39 39 39 39 40 40 40 40 40 40 40 40 40 40
43 42 41 41 41 41 41 40 39 37 37 37 37 37 35 34 33 32 32 32 33 34 33 32 31 30 28 25 23 24 24 26 29 31 31 30 30 29 29 29 29 30 31 31 32 33 34 34 35 35 35 35 35 35 35 35 35 35 35 36 36 37 38 38 39 39 40 40 40 40 41 42 42 43 43 43 42 42 42 42 42 42 42 42 42 42
43 42 41 41 41 41 41 39 39 39 39 39 40 40 39 39 38 37 37 36 35 36 36 35 35 33 31 28 26 27 28 29 30 32 32 33 33 33 33 33 33 34 34 34 35 35 35 36 36 37 37 37 38 38 38 38 38 37 38 39 39 40 41 41 41 41 41 42 42 42 43 43 44 45 45 45 45 44 45 45 45 45 45 45 45 45
42 42 41 40 39 39 38 36 35 36 37 38 38 38 37 36 35 35 35 36 35 35 36 37 37 36 34 32 30 30 30 31 32 34 35 35 35 35 36 36 36 36 36 36 37 37 37 37 38 39 39 40 40 41 41 41 41 41 42 42 43 44 44 45 45 45 44 44 44 44 45 45 45 46 46 46 47 47 47 47 47 47 47 48 48 48
44 42 41 40 39 38 37 36 34 34 35 34 34 33 32 31 31 32 33 34 35 36 36 37 37 37 36 35 34 33 33 33 35 36 37 38 38 38 38 38 39 39 39 39 39 39 40 40 41 42 43 43 44 44 45 45 45 45 46 47 47 48 48 48 48 48 48 48 48 48 48 48 48 49 49 50 50 50 51 51 51 51 51 51 51 52
46 45 42 40 38 37 35 35 35 36 36 35 34 33 32 32 33 35 35 36 36 37 37 37 37 37 37 37 36 36 37 37 37 38 39 40 41 41 41 41 41 41 42 42 42 43 44 45 45 46 47 47 48 48 48 48 49 49 50 51 51 51 50 49 49 49 50 51 52 52 52 52 52 52 52 53 53 54 55 55 55 55 55 55 55 55
45 45 43 41 38 36 35 34 34 35 36 36 36 36 36 36 37 38 38 38 38 38 39 39 39 39 39 40 40 41 41 40 40 40 41 41 42 43 43 43 44 44 45 45 46 47 48 48 49 50 50 51 51 52 52 52 52 53 53 53 52 50 48 47 47 47 48 49 51 52 53 53 53 53 53 53 53 53 54 54 55 55 55 56 56 56
42 42 42 41 39 37 35 35 35 35 35 36 36 37 37 38 39 40 40 41 41 42 42 42 42 42 43 44 45 45 44 43 42 42 42 42 43 44 44 45 45 46 47 48 49 49 49 50 51 51 52 52 52 52 52 52 52 52 51 50 49 47 46 45 46 46 47 48 48 49 50 51 52 52 52 52 52 52 52 53 53 54 54 55 55 56
42 40 39 39 39 38 37 36 36 37 37 37 38 38 39 39 40 41 42 43 44 44 45 45 46 46 47 47 47 46 45 44 43 43 43 44 44 45 45 46 47 48 49 49 49 49 49 50 50 50 49 49 49 48 48 48 48 47 47 47 46 46 47 48 49 49 50 51 51 51 52 53 53 54 55 55 56 56 56 57 57 57 58 58 59 59
44 43 42 42 41 41 40 39 39 40 40 40 40 40 41 41 42 42 43 44 44 45 45 46 46 46 47 46 46 45 45 45 45 45 45 46 46 46 47 48 48 49 49 48 48 48 48 48 47 46 46 46 46 45 45 46 46 46 47 47 48 50 51 52 54 55 56 56 56 57 57 58 58 59 60 61 62 62 63 63 63 64 64 64 65 65
45 45 46 46 45 45 44 44 43 43 43 43 42 42 41 41 41 41 41 41 41 41 42 42 43 43 44 44 44 45 46 46 46 47 47 48 48 49 49 49 49 48 47 47 47 47 47 47 46 46 46 46 47 47 48 48 49 50 51 52 53 55 56 58 59 60 60 60 60 61 61 62 63 64 65 65 66 67 68 68 69 69 70 70 70 71
46 47 47 48 48 48 48 48 47 46 45 44 42 39 38 37 37 37 37 37 37 37 38 39 41 42 43 44 45 46 47 47 47 48 48 49 49 49 49 49 49 48 48 48 48 48 49 49 49 49 50 50 50 51 52 53 54 55 56 57 58 60 61 62 63 63 64 64 65 65 66 67 68 69 70 70 71 72 72 73 73 74 74 74 74 75
42 43 44 45 46 47 47 47 47 46 45 43 41 37 35 36 36 37 37 37 37 38 39 40 41 43 44 45 45 46 46 46 46 46 46 47 47 48 48 48 49 49 50 50 50 51 51 52 52 53 53 54 54 55 56 57 58 59 60 61 62 63 64 65 66 67 67 68 68 69 70 71 71 72 73 73 74 74 74 74 75 75 75 76 76 77
Wind_Direction
94 98 102 104 106 107 108 109 111 115 119 123 125 125 125 128 134 140 141 141 142 145 153 158 159 163 169 179 187 187 186 188 193 198 206 212 222 233 239 243 247 251 255 257 256 256 258 263 269 273 274 276 277 276 272 270 271 273 276 277 279 281 283 285 287 290 291 291 291 291 292 295 299 301 300 301 303 302 303 305 307 308 308 304 301 299
94 96 99 102 104 105 107 109 112 116 120 122 121 120 121 125 130 132 134 136 138 142 147 150 153 160 171 182 188 191 192 194 198 205 214 221 228 233 235 238 242 245 247 247 249 253 258 264 269 271 273 274 273 270 268 270 273 275 275 276 278 281 283 285 288 291 292 290 288 289 292 296 299 299 299 301 302 302 303 306 307 308 308 304 300 298
95 97 99 101 103 105 107 109 112 115 118 118 118 120 123 126 127 128 131 135 138 141 145 150 156 163 175 182 184 193 203 207 208 212 220 225 226 225 226 230 233 236 240 244 251 256 260 263 266 268 269 269 267 268 271 273 273 273 274 276 279 280 283 286 289 292 290 287 286 289 293 296 297 298 299 299 300 300 302 305 307 307 308 304 299 297
96 99 101 103 105 106 107 108 110 112 114 116 119 121 124 127 129 131 135 137 140 143 146 150 157 163 170 178 185 195 204 211 214 218 224 225 223 223 225 230 235 239 243 249 253 256 259 261 264 265 264 264 266 269 271 271 270 272 275 278 278 280 283 286 289 290 287 286 287 290 293 295 296 296 297 296 298 300 300 303 306 307 307 304 299 296
99 101 103 105 105 105 107 108 109 110 113 116 120 123 125 127 129 131 134 136 139 142 144 148 153 157 167 181 191 197 202 208 214 220 225 223 223 226 230 235 239 242 246 251 254 257 258 259 260 260 261 264 266 266 266 267 270 273 276 277 278 280 282 285 288 287 286 287 288 291 293 294 295 294 294 294 297 299 299 302 305 307 307 304 298 295
101 102 104 105 105 105 107 109 109 111 114 119 126 130 131 132 134 135 135 136 139 143 147 150 152 158 172 186 192 197 202 207 211 216 219 220 224 229 233 238 241 245 252 256 256 255 254 254 255 257 261 262 262 262 263 266 271 274 277 278 278 279 281 284 286 286 287 288 289 290 291 292 292 291 291 293 296 297 298 300 304 307 307 304 299 294
103 104 104 104 105 106 107 109 111 115 120 127 133 136 137 139 140 141 139 138 140 145 151 153 155 166 177 183 186 192 197 202 208 213 216 220 226 231 236 240 245 251 255 254 251 248 247 250 253 256 258 258 260 261 263 267 271 275 277 278 279 280 283 285 285 285 286 287 288 288 290 290 289 288 290 293 295 296 297 299 303 307 308 306 301 295
107 107 107 106 106 107 109 111 113 119 126 133 136 137 140 141 142 142 139 139 141 144 152 153 154 170 183 188 189 189 193 199 206 211 216 222 228 234 238 240 243 246 246 243 239 237 240 245 248 253 255 258 261 262 266 270 272 274 275 277 280 283 285 285 284 285 285 285 285 285 286 286 284 287 292 294 295 295 295 297 300 306 309 309 304 297
107 107 108 107 107 109 112 115 121 128 134 138 138 139 142 142 144 142 138 144 146 148 158 162 160 169 183 194 197 194 197 204 208 210 215 221 227 230 233 234 235 235 233 229 228 229 234 241 248 255 258 261 263 266 269 270 271 273 274 278 282 284 284 284 283 283 283 282 282 283 283 280 281 288 293 294 293 292 293 295 298 302 306 308 307 302
100 102 104 106 109 112 113 116 123 129 134 135 136 140 144 145 146 144 145 153 153 157 170 172 169 173 182 191 195 198 203 208 210 211 211 212 217 219 221 224 224 222 222 225 229 233 239 246 253 258 262 263 265 266 268 269 271 272 276 281 283 283 283 283 284 283 282 280 279 281 280 278 281 289 293 292 289 289 290 293 296 299 301 302 305 306
96 95 97 101 104 106 107 111 118 123 125 126 128 133 140 145 145 143 147 153 153 162 176 178 176 179 187 191 191 193 198 205 205 204 204 204 205 208 212 215 214 216 221 228 234 239 244 250 254 258 260 262 264 266 268 269 271 275 279 282 282 283 284 284 284 283 280 279 279 280 278 277 282 289 291 289 285 285 287 291 295 297 298 298 299 301
95 96 97 101 104 106 107 112 119 123 123 127 128 129 134 141 143 143 148 152 157 168 176 181 182 182 188 191 188 186 193 201 202 200 199 200 200 203 208 211 213 218 224 232 238 242 247 252 255 259 260 263 265 265 266 267 270 274 278 280 282 284 285 285 285 283 281 280 280 280 277 277 282 286 287 286 285 284 285 290 294 297 298 297 297 298
105 107 108 112 115 116 117 119 124 126 126 130 132 133 136 140 142 148 152 156 163 172 176 179 180 182 187 190 187 186 193 197 197 197 196 196 198 201 207 212 217 223 230 237 243 248 253 259 262 264 265 266 266 263 262 263 266 270 273 277 281 283 285 287 287 284 281 280 280 280 278 278 280 283 283 282 283 284 285 290 295 297 298 298 298 297
116 116 118 121 123 123 125 128 131 131 131 133 134 136 140 144 147 152 157 159 162 171 175 174 175 178 182 187 189 190 194 194 194 194 193 194 197 202 209 217 223 229 235 241 249 255 260 266 268 270 270 270 268 265 261 260 260 264 269 274 279 283 288 290 288 285 282 281 281 281 280 280 280 280 279 277 279 281 285 290 295 297 298 298 298 297
119 120 121 125 127 126 129 132 133 135 134 134 133 132 134 141 150 154 156 158 160 167 170 170 174 176 178 188 193 197 197 196 195 195 196 200 204 209 214 220 225 231 239 247 256 261 264 266 267 269 269 270 270 268 266 264 264 267 271 276 282 287 291 292 290 288 287 287 286 284 283 282 281 281 279 276 275 277 282 287 292 295 296 297 297 296
125 126 125 129 134 132 132 135 135 135 136 134 131 130 131 136 146 153 155 158 163 170 172 174 177 176 181 191 196 205 208 205 204 203 204 209 211 215 218 221 226 233 244 253 262 267 267 266 266 266 265 265 266 267 269 270 271 273 276 281 286 290 292 291 290 290 291 289 288 286 285 285 284 283 281 278 276 277 279 282 287 290 292 294 295 295
130 134 134 136 141 141 139 138 138 139 140 137 135 141 148 149 155 159 164 169 172 177 179 180 180 177 180 186 189 204 213 214 216 213 211 214 217 221 225 228 235 243 253 260 268 274 274 271 269 266 265 262 262 263 266 269 272 275 278 281 285 288 290 288 286 288 289 288 286 285 285 286 286 285 283 280 278 277 277 279 282 286 288 291 293 295
142 140 141 140 144 149 146 138 136 144 147 143 143 152 157 160 165 163 168 181 187 187 182 180 183 184 184 184 187 199 208 215 221 221 221 224 228 234 239 243 248 254 261 267 275 280 281 280 275 270 266 263 263 265 268 272 273 275 277 279 281 284 285 283 280 284 287 287 285 282 282 283 284 284 283 281 280 277 278 279 281 284 287 293 299 301
157 146 145 149 153 157 153 147 147 153 154 149 146 151 161 171 179 171 165 176 188 190 185 181 188 192 191 192 198 208 213 215 221 228 232 236 240 246 250 253 258 261 266 272 277 280 280 281 279 276 271 268 269 271 273 274 274 274 276 278 280 280 278 275 275 279 284 288 286 281 278 280 282 281 279 278 279 277 276 276 278 282 290 301 311 313
167 160 156 162 165 162 160 162 164 160 163 162 152 150 163 178 190 195 189 184 186 192 191 189 193 199 200 201 207 216 220 220 224 231 238 244 246 250 254 258 262 265 270 273 274 274 275 275 277 279 277 274 273 274 274 274 273 274 275 276 277 274 271 269 269 273 280 287 287 281 276 276 278 279 277 275 275 276 275 274 276 278 288 305 317 320
172 173 168 166 169 168 166 178 178 165 168 178 168 159 162 171 179 193 201 200 196 202 205 200 202 208 209 211 214 220 225 226 229 233 240 246 249 253 257 261 265 269 272 273 273 274 274 273 274 276 276 274 273 274 275 275 276 274 272 270 268 266 265 265 266 271 277 283 285 282 278 276 276 277 277 275 274 275 274 275 273 271 281 302 315 320
176 181 177 170 171 171 170 183 189 176 169 177 182 179 175 176 178 183 193 201 203 208 211 207 208 213 215 218 221 226 230 234 236 239 244 250 255 260 264 267 270 272 273 275 276 278 278 276 276 275 275 275 275 277 278 279 279 276 272 269 267 266 266 268 270 273 274 272 271 273 276 279 281 280 278 275 274 273 271 272 271 270 279 297 309 316
184 187 183 177 178 177 174 181 192 196 188 177 181 190 191 192 196 199 200 202 204 207 210 213 216 220 224 227 229 233 236 239 242 245 250 256 260 264 267 269 270 271 273 277 280 283 282 281 280 277 276 277 277 278 278 279 278 276 273 271 271 271 272 274 274 273 270 265 265 269 275 282 286 285 282 277 274 271 268 269 272 274 282 293 303 310
193 193 190 188 188 185 182 184 192 204 210 201 188 188 194 198 203 209 208 205 206 206 209 216 222 227 232 236 237 240 243 245 249 252 255 259 261 264 266 267 269 274 279 282 286 288 285 282 282 281 279 278 277 276 276 277 276 274 271 269 268 269 270 272 272 269 266 265 267 269 273 278 281 279 276 274 271 268 267 271 277 279 284 291 298 304
205 201 200 203 204 199 195 198 204 208 212 217 211 197 195 200 204 211 214 215 216 219 222 227 230 231 236 242 245 248 250 252 255 257 259 260 261 261 264 268 274 279 283 285 286 286 283 281 282 282 281 279 278 277 277 277 276 274 270 267 265 265 265 266 266 265 263 262 261 260 259 259 261 260 261 264 267 268 270 276 284 287 287 290 295 301
216 210 208 211 214 211 206 208 216 219 214 218 220 214 207 208 212 218 225 228 227 229 235 239 241 240 243 249 253 254 256 258 258 259 260 261 263 264 268 274 279 283 285 285 283 280 279 278 278 276 275 274 274 277 278 279 278 273 269 266 265 264 264 264 265 265 262 258 255 256 256 254 252 253 256 260 264 268 270 277 285 287 288 289 292 299
220 217 216 217 217 216 215 214 219 225 224 218 218 220 219 219 222 228 235 240 239 240 244 247 250 250 251 255 258 260 262 263 263 263 264 266 269 271 274 278 281 283 284 282 280 277 275 274 273 273 274 274 276 278 280 281 279 275 271 268 265 264 264 263 262 262 261 258 254 255 258 256 253 255 258 261 263 265 268 273 277 278 280 283 286 292
220 220 219 220 219 219 220 221 222 227 229 224 218 219 223 226 229 231 235 239 242 244 248 250 254 256 258 260 262 264 266 266 266 268 269 272 275 277 279 280 281 282 281 278 275 272 271 271 273 275 276 277 279 280 280 281 280 280 278 275 271 267 265 263 261 258 258 258 256 255 256 256 255 255 257 260 262 264 266 268 271 271 272 276 280 285
220 222 222 220 220 221 222 223 225 228 231 232 228 225 227 230 233 234 236 238 241 244 249 253 257 259 262 265 266 268 269 270 270 271 273 276 278 279 279 280 279 278 276 274 271 271 271 272 272 273 274 275 276 277 278 279 280 280 281 280 276 271 267 264 262 259 258 258 258 257 257 257 257 256 256 256 258 262 265 267 269 271 272 273 276 280
221 223 223 222 223 224 225 226 227 230 233 236 236 235 236 239 243 246 249 250 251 252 255 258 261 263 266 269 271 273 274 275 276 277 277 278 278 278 277 276 276 275 274 273 273 274 274 272 270 269 270 271 273 275 276 277 277 278 279 279 277 272 268 265 262 260 259 258 259 260 260 260 261 260 258 258 259 262 267 271 274 274 274 272 272 273
219 219 220 222 225 227 228 230 232 234 237 240 242 244 246 249 253 256 257 257 258 259 261 264 266 269 271 273 274 276 278 279 279 278 278 277 277 276 275 273 273 273 273 276 279 281 280 277 274 271 270 270 272 273 276 277 276 277 278 280 279 275 270 267 265 264 262 261 262 262 262 262 262 262 262 262 264 265 268 272 274 275 275 273 271 270
216 216 216 217 220 224 227 229 232 235 238 243 246 248 251 253 255 257 259 261 263 266 268 271 273 274 274 275 276 277 277 277 276 276 275 275 274 273 272 271 270 271 274 280 285 285 283 280 277 275 273 272 272 273 276 277 277 276 276 279 279 277 273 269 267 266 266 265 265 265 265 265 264 264 264 264 266 267 269 271 272 273 273 272 270 268
218 218 217 216 217 222 225 226 228 232 235 240 244 248 250 253 256 259 263 265 268 271 273 274 275 275 275 276 277 276 275 276 276 276 275 272 270 269 267 267 267 269 275 282 285 284 282 281 281 279 277 274 273 274 276 278 278 277 276 276 276 275 273 270 268 267 267 266 266 266 266 266 266 266 266 267 267 268 270 271 272 273 273 272 269 266
223 223 223 222 222 224 227 229 230 232 235 239 243 247 251 255 259 262 265 268 271 272 272 272 272 273 274 274 274 273 275 279 282 281 278 272 267 263 261 262 263 267 275 281 283 280 280 283 285 285 282 279 277 277 276 277 277 277 276 275 274 272 271 269 267 266 266 265 265 265 264 264 265 265 266 267 267 268 269 271 273 274 274 272 271 266
226 228 228 229 228 229 232 235 236 238 240 243 248 252 256 259 261 264 267 269 270 268 267 268 270 272 272 272 271 272 276 282 287 288 284 276 266 260 257 258 262 267 274 279 278 275 278 283 286 287 285 281 278 277 277 278 278 277 276 275 274 274 273 271 270 268 268 267 267 266 266 266 266 267 268 269 270 270 271 273 274 275 275 274 272 268
229 231 232 233 234 234 236 238 240 242 244 248 253 257 260 261 262 264 267 268 267 264 263 266 270 274 274 274 274 276 279 283 287 289 289 283 272 262 258 259 263 269 274 277 276 273 277 282 284 284 284 281 278 277 278 280 280 279 277 276 276 276 275 275 274 272 271 270 269 269 269 270 270 271 271 272 272 273 273 274 275 276 276 276 274 271
232 234 236 237 238 239 240 242 244 246 249 252 257 260 260 260 260 262 264 266 264 261 260 264 271 276 279 281 282 281 283 285 286 285 285 283 278 271 266 265 268 271 274 276 276 275 276 279 280 281 281 280 278 278 279 281 282 281 279 278 277 277 278 277 276 275 274 273 272 271 270 270 270 271 272 272 273 273 274 275 276 276 276 276 275 274
233 235 237 240 241 242 243 245 246 249 252 255 258 259 258 257 257 259 263 264 262 260 259 263 270 277 280 283 285 285 286 287 283 280 280 279 278 275 273 271 271 272 274 275 276 276 276 277 278 278 277 277 277 279 280 282 283 283 282 281 280 280 279 279 278 278 277 276 275 275 273 272 272 272 273 274 274 274 274 274 274 274 275 275 275 274
234 236 238 240 242 244 245 246 248 249 252 255 256 256 255 256 257 259 263 264 262 260 261 264 269 273 277 280 284 287 287 284 279 277 277 276 274 273 273 272 272 272 273 274 275 276 276 276 276 276 275 275 276 279 281 282 283 283 283 283 282 282 281 280 280 279 278 278 278 277 277 276 276 276 276 277 277 276 275 274 273 272 272 272 272 272
234 238 240 242 244 246 246 247 248 250 252 254 254 255 256 258 259 260 261 262 261 261 263 265 267 270 273 277 281 282 280 276 274 275 276 274 273 273 272 271 271 271 272 273 273 274 275 275 276 276 276 277 278 280 282 283 283 283 283 283 283 283 282 281 281 280 279 279 278 278 277 277 277 278 279 279 278 277 276 275 274 273 272 271 271 270
233 236 240 242 245 247 248 249 250 252 253 254 255 257 258 259 259 259 259 259 260 262 264 265 267 268 271 274 274 274 275 275 275 276 276 275 274 273 272 272 272 272 272 273 273 274 275 276 276 277 278 279 280 281 282 283 283 282 282 283 283 283 282 281 280 280 279 278 278 277 277 277 277 278 278 278 278 277 276 275 274 274 273 272 271 270
233 235 237 240 244 247 248 248 249 251 252 253 254 255 256 256 256 256 255 257 259 261 263 266 267 268 270 273 274 276 279 280 280 278 277 276 274 273 273 273 274 274 275 276 276 277 278 278 279 279 279 280 280 281 281 282 282 281 282 283 283 283 282 281 280 279 278 278 277 277 277 277 277 277 277 277 276 276 275 274 274 273 273 272 272 271
231 234 237 240 244 247 247 247 247 248 249 250 251 251 251 251 252 252 254 256 257 259 263 267 268 269 271 274 277 279 282 283 282 280 278 276 275 274 273 274 274 276 277 278 279 279 280 280 280 281 281 281 281 281 281 281 280 281 281 283 284 283 282 280 279 278 278 277 276 276 276 276 276 276 276 276 275 275 274 273 273 273 272 272 272 271
231 234 236 240 243 244 246 246 246 247 248 248 249 249 249 248 250 252 255 258 259 261 264 267 269 271 273 276 278 280 282 283 282 280 278 276 275 274 274 274 275 276 277 278 279 279 279 279 279 279 280 280 280 280 280 280 280 281 282 283 284 283 282 281 280 280 279 277 276 275 275 275 276 276 276 276 276 276 275 274 273 273 272 272 272 272
232 234 235 237 240 242 244 246 247 248 250 251 252 253 253 253 254 256 258 260 262 264 266 268 271 273 275 278 280 281 281 281 280 279 277 275 274 274 274 275 276 277 278 279 279 279 279 279 279 279 279 279 280 280 280 280 280 281 282 283 283 282 281 281 281 282 282 281 279 277 276 276 276 276 277 278 278 277 276 275 274 274 274 273 273 273
232 234 235 236 238 241 244 246 248 250 253 254 256 257 258 259 260 260 262 263 265 267 268 270 272 274 276 279 280 280 278 276 276 276 275 274 274 274 274 275 276 277 278 279 279 280 280 280 281 281 280 280 280 280 280 280 281 281 281 281 281 280 280 281 283 284 285 285 284 282 280 278 277 277 278 279 279 279 278 277 276 276 275 275 275 274
231 233 235 237 238 240 242 244 246 248 251 253 255 258 259 261 262 263 264 266 267 269 271 272 274 275 276 277 277 275 274 273 273 273 273 273 273 273 274 276 278 279 280 280 280 280 281 281 281 281 281 281 281 281 281 281 281 281 280 280 279 279 280 281 283 284 285 286 285 285 284 282 281 280 279 279 279 279 279 278 278 277 277 276 276 276
232 233 235 236 237 239 240 242 244 247 249 252 255 258 260 262 263 265 266 268 270 271 273 273 274 274 274 273 273 272 272 272 272 273 272 272 273 274 276 278 280 281 280 280 279 280 280 280 281 281 281 281 281 280 280 280 280 280 280 279 279 280 281 282 282 283 284 284 284 283 283 282 281 281 280 280 280 279 279 279 278 278 277 277 276 276
235 235 237 238 240 242 243 245 247 250 252 255 258 261 264 265 265 266 268 269 270 270 270 270 270 271 271 271 272 272 272 272 273 273 273 274 274 276 277 279 280 280 279 279 279 279 280 280 280 280 281 280 280 280 280 280 280 280 280 280 280 281 282 282 283 283 283 283 283 282 282 282 281 281 280 280 280 279 279 279 278 278 277 277 276 276
237 238 240 242 243 245 247 249 251 253 256 259 261 262 263 263 263 264 264 264 266 267 269 270 270 271 271 271 272 272 272 273 273 274 274 275 276 276 277 278 278 279 279 280 280 280 280 280 281 281 281 281 281 281 280 280 280 280 281 281 281 281 282 282 282 282 282 282 282 282 282 281 281 281 280 280 280 280 279 279 279 278 278 278 278 277
241 241 243 245 247 249 251 252 254 255 257 258 257 256 256 258 260 261 262 263 265 268 270 272 272 272 272 272 272 273 273 274 275 275 276 277 277 277 278 279 279 280 280 280 281 281 281 281 281 282 282 282 282 281 281 281 281 281 281 281 281 281 281 281 281 281 281 281 281 281 281 281 281 281 281 280 280 280 280 280 280 279 279 279 279 279
Height
10553 10552 10552 10552 10553 10553 10557 10561 10567 10575 10582 10589 10595 10600 10607 10612 10618 10625 10631 10636 10642 10648 10655 10663 10671 10678 10683 10688 10693 10696 10699 10703 10708 10713 10716 10718 10721 10721 10722 10723 10724 10726 10729 10731 10733 10735 10736 10736 10736 10736 10736 10735 10735 10734 10734 10733 10733 10733 10733 10732 10732 10731 10730 10729 10728 10727 10726 10725 10723 10722 10721 10720 10718 10717 10715 10713 10711 10709 10707 10705 10703 10701 10699 10698 10697 10696
10562 10562 10562 10562 10562 10562 10565 10572 10579 10585 10590 10597 10602 10607 10613 10619 10624 10629 10635 10640 10646 10652 10659 10665 10672 10678 10683 10687 10692 10699 10704 10707 10710 10713 10715 10716 10718 10719 10720 10721 10723 10726 10728 10729 10731 10732 10733 10733 10733 10733 10732 10732 10731 10731 10731 10731 10731 10731 10730 10730 10729 10728 10727 10726 10725 10724 10723 10722 10721 10720 10719 10717 10716 10714 10713 10711 10709 10707 10705 10703 10701 10699 10698 10696 10696 10695
10570 10571 10571 10571 10572 10574 10577 10583 10590 10594 10598 10603 10608 10613 10620 10626 10631 10635 10640 10644 10649 10655 10661 10665 10671 10677 10682 10687 10693 10700 10707 10710 10711 10713 10714 10715 10716 10717 10718 10720 10723 10725 10726 10728 10729 10730 10730 10730 10730 10729 10729 10729 10729 10728 10729 10729 10729 10728 10728 10727 10726 10726 10725 10724 10723 10722 10721 10720 10719 10717 10716 10715 10714 10712 10710 10709 10707 10706 10704 10702 10700 10698 10696 10695 10694 10693
10578 10578 10579 10580 10582 10586 10589 10593 10597 10600 10604 10610 10616 10622 10628 10632 10637 10640 10644 10648 10653 10659 10664 10668 10672 10677 10682 10688 10692 10698 10705 10709 10711 10712 10714 10714 10715 10716 10718 10720 10722 10723 10725 10726 10727 10727 10727 10727 10727 10726 10726 10726 10726 10727 10726 10726 10726 10726 10725 10725 10724 10723 10722 10722 10720 10719 10718 10717 10716 10715 10714 10713 10711 10710 10708 10707 10705 10704 10702 10700 10698 10697 10695 10693 10692 10691
10587 10587 10587 10588 10591 10595 10598 10601 10604 10608 10610 10616 10625 10631 10634 10637 10641 10645 10649 10653 10657 10663 10667 10672 10676 10681 10685 10689 10693 10697 10703 10707 10709 10711 10712 10713 10713 10715 10717 10719 10720 10722 10723 10724 10724 10724 10724 10724 10724 10724 10724 10724 10725 10725 10724 10724 10723 10723 10723 10722 10721 10721 10720 10719 10718 10717 10716 10714 10713 10712 10711 10710 10709 10708 10706 10705 10703 10702 10700 10699 10697 10695 10693 10692 10691 10690
10594 10595 10596 10597 10599 10603 10606 10608 10612 10615 10617 10623 10631 10636 10638 10641 10644 10648 10653 10658 10662 10666 10670 10674 10679 10684 10689 10692 10695 10699 10703 10706 10707 10708 10710 10711 10713 10715 10717 10718 10719 10721 10722 10722 10722 10721 10721 10721 10722 10722 10722 10723 10723 10723 10722 10722 10721 10721 10720 10719 10719 10718 10717 10716 10715 10714 10713 10711 10710 10709 10709 10708 10707 10706 10704 10703 10701 10700 10698 10697 10695 10694 10692 10691 10690 10689
10602 10603 10605 10606 10607 10611 10613 10616 10619 10622 10624 10630 10635 10638 10641 10644 10648 10651 10656 10661 10666 10670 10673 10677 10681 10686 10690 10693 10696 10699 10703 10705 10706 10707 10708 10710 10713 10715 10717 10717 10718 10720 10720 10720 10719 10719 10719 10720 10721 10721 10721 10721 10721 10720 10720 10719 10719 10718 10717 10717 10716 10715 10714 10713 10712 10711 10710 10708 10707 10707 10706 10706 10705 10704 10702 10701 10700 10698 10697 10695 10694 10693 10691 10690 10688 10687
10609 10610 10612 10613 10615 10618 10620 10623 10626 10628 10631 10636 10639 10642 10645 10648 10652 10656 10660 10665 10669 10674 10678 10681 10685 10689 10692 10694 10696 10698 10700 10702 10704 10706 10708 10710 10713 10714 10715 10716 10717 10718 10718 10718 10717 10718 10718 10719 10720 10719 10719 10719 10718 10718 10718 10717 10717 10716 10715 10714 10713 10712 10711 10710 10709 10709 10707 10706 10705 10704 10704 10704 10703 10702 10701 10699 10698 10697 10695 10694 10693 10692 10690 10689 10688 10686
10618 10618 10618 10619 10621 10624 10627 10629 10632 10634 10637 10640 10643 10645 10648 10651 10656 10660 10665 10670 10673 10678 10682 10685 10688 10691 10693 10694 10695 10697 10699 10701 10702 10704 10707 10709 10711 10712 10713 10715 10715 10716 10716 10716 10716 10717 10717 10718 10718 10718 10717 10717 10717 10716 10716 10715 10715 10714 10713 10711 10710 10709 10709 10708 10707 10706 10705 10704 10703 10702 10702 10702 10701 10700 10699 10698 10697 10695 10694 10693 10692 10690 10689 10688 10687 10686
10626 10625 10625 10626 10628 10631 10632 10635 10637 10640 10642 10645 10647 10649 10651 10654 10658 10663 10667 10672 10675 10679 10683 10685 10688 10690 10691 10692 10694 10697 10699 10701 10703 10704 10707 10708 10709 10710 10711 10712 10713 10714 10714 10715 10715 10716 10716 10716 10716 10716 10715 10715 10714 10714 10714 10713 10712 10711 10710 10709 10708 10707 10706 10705 10705 10704 10703 10702 10701 10700 10700 10700 10699 10698 10697 10696 10695 10694 10693 10692 10690 10689 10688 10687 10686 10685
10632 10632 10632 10634 10636 10638 10639 10641 10644 10646 10648 10650 10652 10655 10657 10659 10662 10665 10668 10672 10676 10680 10683 10685 10687 10689 10691 10692 10695 10698 10701 10702 10703 10704 10706 10707 10708 10709 10709 10711 10712 10713 10713 10714 10714 10714 10715 10714 10714 10713 10713 10712 10712 10712 10711 10711 10709 10708 10708 10707 10706 10705 10704 10703 10702 10701 10701 10700 10699 10698 10698 10698 10697 10696 10695 10694 10693 10692 10691 10690 10689 10688 10686 10685 10684 10683
10638 10638 10639 10640 10642 10644 10645 10647 10649 10650 10652 10654 10656 10658 10660 10663 10665 10668 10671 10674 10677 10679 10682 10685 10687 10689 10691 10693 10696 10699 10701 10702 10703 10704 10704 10705 10706 10707 10709 10710 10711 10711 10712 10712 10712 10713 10713 10713 10712 10711 10711 10710 10710 10709 10709 10708 10707 10706 10705 10704 10704 10703 10702 10701 10700 10699 10699 10698 10697 10696 10696 10695 10695 10694 10693 10692 10691 10690 10689 10688 10687 10686 10685 10684 10683 10681
10642 10642 10643 10644 10645 10646 10648 10650 10652 10654 10655 10656 10658 10659 10661 10664 10666 10669 10672 10674 10677 10679 10682 10685 10688 10690 10692 10693 10696 10698 10700 10700 10701 10703 10703 10704 10705 10707 10708 10709 10710 10710 10710 10711 10711 10711 10711 10711 10710 10710 10709 10708 10708 10707 10706 10705 10704 10704 10703 10702 10701 10700 10699 10699 10698 10697 10696 10696 10695 10694 10693 10693 10692 10692 10691 10690 10689 10688 10688 10687 10686 10685 10684 10682 10681 10680
10646 10647 10647 10647 10648 10649 10650 10652 10654 10656 10657 10659 10660 10662 10664 10666 10668 10670 10673 10676 10678 10681 10684 10687 10689 10691 10692 10693 10695 10697 10699 10699 10701 10701 10702 10703 10705 10706 10707 10707 10708 10708 10709 10709 10709 10709 10709 10709 10709 10708 10707 10706 10706 10705 10704 10703 10702 10701 10700 10699 10699 10698 10697 10697 10696 10695 10694 10693 10692 10692 10691 10690 10689 10689 10689 10688 10687 10687 10686 10685 10684 10683 10682 10681 10680 10679
10650 10651 10651 10651 10652 10652 10653 10655 10657 10658 10660 10661 10663 10665 10667 10669 10671 10674 10676 10679 10681 10683 10686 10688 10689 10690 10691 10693 10695 10697 10698 10699 10700 10701 10701 10702 10703 10704 10706 10706 10706 10707 10707 10707 10707 10707 10707 10707 10707 10706 10705 10705 10704 10703 10702 10700 10699 10699 10698 10697 10697 10696 10695 10694 10694 10693 10692 10691 10690 10689 10689 10688 10687 10686 10686 10686 10685 10685 10684 10683 10682 10682 10681 10680 10678 10677
10653 10654 10654 10654 10655 10655 10656 10658 10659 10661 10663 10664 10666 10668 10670 10672 10674 10676 10678 10680 10682 10683 10685 10687 10689 10690 10692 10693 10696 10697 10698 10699 10700 10700 10701 10702 10703 10704 10704 10705 10705 10705 10705 10705 10705 10705 10705 10705 10704 10704 10703 10703 10702 10700 10699 10698 10697 10697 10696 10695 10694 10694 10693 10692 10692 10691 10690 10689 10688 10687 10686 10686 10685 10684 10683 10683 10683 10683 10682 10681 10680 10679 10678 10677 10676 10675
10656 10656 10656 10656 10657 10658 10659 10660 10662 10663 10664 10666 10669 10670 10672 10674 10675 10677 10678 10680 10681 10682 10684 10687 10689 10691 10693 10695 10697 10698 10698 10699 10699 10700 10700 10701 10702 10702 10703 10703 10703 10703 10703 10703 10703 10703 10703 10702 10702 10702 10701 10700 10699 10698 10697 10696 10695 10694 10693 10693 10692 10691 10691 10690 10690 10689 10688 10687 10686 10685 10684 10683 10682 10681 10681 10680 10680 10680 10679 10679 10678 10677 10676 10675 10674 10673
10657 10657 10658 10658 10659 10660 10661 10662 10664 10665 10665 10667 10670 10671 10673 10675 10676 10677 10678 10679 10681 10682 10684 10686 10689 10691 10694 10695 10696 10697 10698 10699 10699 10699 10699 10700 10700 10700 10700 10701 10701 10701 10701 10701 10701 10701 10700 10700 10700 10700 10699 10698 10697 10696 10694 10693 10692 10691 10691 10690 10690 10689 10689 10688 10687 10687 10686 10685 10684 10683 10682 10681 10680 10679 10678 10677 10677 10676 10676 10676 10675 10674 10673 10672 10671 10670
10657 10658 10659 10660 10660 10661 10662 10663 10665 10666 10667 10668 10669 10672 10674 10675 10675 10677 10678 10679 10680 10682 10684 10686 10689 10691 10693 10694 10695 10696 10697 10698 10698 10699 10698 10698 10698 10698 10698 10698 10698 10698 10698 10698 10698 10698 10698 10698 10698 10697 10697 10696 10694 10693 10692 10690 10689 10688 10688 10687 10687 10686 10686 10685 10685 10684 10683 10682 10681 10680 10679 10678 10677 10676 10675 10675 10674 10674 10673 10673 10672 10672 10671 10670 10669 10667
10657 10658 10660 10660 10661 10662 10663 10664 10665 10667 10668 10668 10669 10671 10673 10674 10675 10676 10677 10678 10679 10681 10683 10686 10688 10689 10690 10691 10692 10693 10694 10695 10697 10697 10696 10695 10695 10695 10695 10695 10695 10695 10695 10695 10695 10695 10695 10695 10695 10694 10694 10693 10691 10690 10688 10687 10686 10685 10685 10684 10684 10683 10683 10682 10681 10681 10680 10679 10678 10677 10676 10676 10675 10674 10673 10673 10672 10671 10671 10670 10670 10669 10669 10668 10666 10665
10656 10658 10659 10660 10660 10662 10663 10664 10665 10666 10667 10668 10670 10671 10672 10673 10674 10675 10675 10676 10678 10680 10682 10684 10685 10686 10687 10688 10689 10690 10690 10692 10693 10694 10693 10692 10692 10692 10692 10692 10692 10692 10692 10692 10692 10692 10692 10692 10692 10691 10690 10689 10688 10687 10685 10684 10683 10682 10682 10681 10681 10680 10679 10679 10678 10678 10677 10677 10676 10674 10673 10673 10672 10672 10671 10671 10670 10669 10669 10668 10668 10667 10666 10665 10663 10662
10655 10657 10658 10659 10660 10661 10662 10663 10664 10665 10666 10667 10669 10670 10670 10671 10673 10674 10674 10675 10677 10678 10680 10681 10682 10683 10684 10685 10686 10686 10687 10688 10689 10690 10690 10689 10689 10688 10688 10688 10688 10688 10688 10688 10689 10689 10688 10688 10688 10688 10687 10686 10685 10684 10682 10681 10680 10679 10679 10678 10677 10677 10676 10676 10675 10674 10674 10674 10672 10671 10670 10671 10671 10670 10669 10669 10668 10667 10666 10666 10665 10664 10663 10662 10661 10660
10655 10656 10657 10658 10659 10660 10661 10662 10664 10664 10665 10666 10668 10669 10670 10671 10672 10673 10674 10674 10675 10677 10678 10679 10680 10681 10681 10682 10683 10683 10684 10685 10686 10686 10686 10686 10686 10685 10685 10685 10685 10685 10685 10685 10685 10685 10685 10685 10684 10684 10684 10683 10681 10680 10679 10678 10677 10676 10675 10675 10674 10674 10673 10673 10672 10671 10671 10671 10670 10669 10670 10670 10670 10668 10667 10667 10666 10664 10663 10662 10662 10661 10660 10660 10659 10657
10654 10656 10657 10658 10659 10659 10660 10661 10662 10663 10664 10665 10666 10667 10668 10670 10671 10671 10672 10673 10674 10675 10676 10677 10678 10679 10679 10680 10680 10681 10682 10682 10683 10683 10684 10683 10683 10683 10682 10682 10682 10682 10682 10682 10682 10682 10681 10681 10681 10680 10680 10679 10678 10677 10675 10674 10673 10672 10671 10671 10670 10670 10670 10669 10668 10668 10669 10669 10668 10668 10669 10669 10668 10666 10664 10663 10662 10661 10661 10660 10659 10659 10658 10657 10656 10655
10653 10654 10655 10657 10658 10659 10660 10661 10661 10662 10663 10663 10664 10665 10667 10668 10669 10669 10670 10671 10672 10673 10675 10675 10676 10677 10678 10678 10678 10679 10679 10680 10680 10681 10681 10681 10681 10680 10680 10680 10679 10679 10679 10679 10679 10679 10679 10678 10678 10677 10676 10676 10675 10673 10672 10671 10669 10668 10668 10667 10666 10666 10665 10665 10665 10665 10666 10665 10665 10665 10665 10665 10663 10660 10659 10659 10658 10658 10658 10657 10657 10656 10655 10654 10653 10651
10650 10652 10653 10655 10657 10658 10659 10660 10660 10660 10660 10661 10662 10663 10665 10666 10668 10669 10669 10670 10671 10672 10673 10673 10674 10675 10675 10675 10676 10676 10677 10677 10678 10678 10678 10678 10678 10678 10677 10677 10677 10676 10676 10676 10675 10675 10675 10674 10674 10673 10673 10672 10671 10670 10668 10667 10666 10665 10664 10663 10662 10662 10662 10661 10661 10662 10662 10661 10660 10660 10660 10660 10658 10655 10655 10656 10655 10655 10654 10654 10654 10652 10651 10650 10649 10648
10647 10649 10651 10652 10654 10655 10655 10656 10656 10657 10658 10659 10660 10661 10663 10665 10666 10668 10669 10669 10670 10671 10671 10671 10671 10672 10672 10673 10673 10673 10674 10674 10675 10675 10675 10675 10674 10674 10674 10674 10673 10673 10672 10672 10671 10671 10670 10669 10669 10668 10668 10667 10666 10665 10664 10662 10661 10660 10660 10659 10659 10658 10658 10658 10658 10657 10657 10656 10656 10655 10655 10655 10654 10653 10652 10651 10651 10651 10650 10650 10650 10648 10647 10646 10645 10644
10644 10646 10648 10649 10650 10651 10651 10652 10653 10654 10655 10656 10657 10659 10660 10662 10664 10666 10667 10667 10668 10669 10668 10668 10668 10668 10669 10669 10670 10670 10671 10671 10671 10671 10671 10671 10671 10670 10670 10670 10669 10669 10668 10668 10667 10666 10666 10665 10664 10664 10663 10662 10661 10660 10659 10658 10657 10656 10655 10655 10654 10654 10653 10653 10653 10653 10653 10652 10651 10650 10650 10649 10649 10648 10648 10647 10646 10646 10645 10646 10645 10643 10643 10642 10641 10640
10642 10643 10644 10646 10647 10648 10649 10649 10650 10651 10652 10653 10655 10656 10658 10660 10661 10663 10664 10664 10665 10666 10666 10665 10666 10665 10665 10665 10666 10666 10667 10667 10667 10667 10667 10667 10666 10666 10665 10665 10665 10664 10664 10663 10663 10662 10661 10660 10660 10659 10658 10657 10657 10656 10655 10654 10653 10652 10651 10650 10649 10649 10648 10648 10648 10648 10648 10647 10646 10645 10644 10644 10644 10643 10643 10642 10642 10641 10640 10641 10640 10639 10638 10638 10638 10637
10639 10640 10641 10643 10644 10645 10646 10647 10648 10649 10650 10651 10652 10654 10655 10657 10658 10659 10660 10661 10662 10663 10663 10663 10663 10662 10662 10662 10662 10662 10663 10663 10663 10662 10662 10662 10661 10661 10660 10660 10660 10660 10659 10659 10658 10658 10657 10656 10655 10654 10654 10653 10653 10652 10651 10650 10649 10648 10648 10646 10645 10644 10643 10643 10643 10643 10643 10642 10641 10641 10640 10640 10640 10639 10638 10638 10637 10636 10635 10634 10634 10633 10633 10633 10633 10633
10637 10638 10639 10641 10642 10643 10643 10644 10645 10646 10647 10648 10650 10651 10652 10654 10655 10656 10657 10657 10658 10659 10659 10659 10659 10659 10659 10659 10659 10659 10658 10658 10658 10657 10657 10656 10656 10656 10655 10655 10655 10655 10655 10654 10654 10653 10652 10651 10650 10650 10649 10649 10648 10648 10647 10646 10646 10645 10644 10643 10642 10641 10639 10639 10638 10638 10638 10637 10637 10637 10636 10636 10635 10634 10633 10632 10631 10631 10630 10629 10628 10627 10627 10628 10628 10628
10635 10635 10637 10639 10640 10641 10641 10641 10642 10643 10644 10645 10647 10648 10649 10650 10651 10652 10652 10653 10654 10654 10655 10655 10655 10655 10655 10655 10655 10654 10654 10653 10653 10652 10652 10651 10651 10651 10650 10650 10650 10650 10650 10650 10649 10648 10647 10646 10646 10645 10645 10644 10644 10644 10643 10642 10642 10641 10641 10640 10639 10638 10637 10635 10634 10634 10633 10633 10632 10632 10631 10630 10630 10629 10628 10627 10626 10626 10625 10624 10623 10622 10621 10622 10622 10622
10632 10633 10635 10637 10638 10638 10638 10639 10639 10640 10641 10642 10644 10645 10646 10647 10647 10648 10648 10649 10650 10650 10651 10651 10651 10650 10650 10650 10650 10650 10649 10649 10648 10648 10647 10646 10646 10646 10646 10646 10646 10646 10646 10645 10645 10644 10643 10642 10642 10641 10641 10640 10640 10640 10639 10639 10638 10637 10637 10636 10636 10635 10634 10633 10631 10630 10629 10628 10628 10627 10626 10625 10625 10624 10623 10622 10622 10621 10620 10619 10618 10616 10616 10616 10615 10616
10629 10631 10632 10633 10635 10636 10636 10636 10637 10638 10639 10640 10641 10642 10643 10643 10644 10644 10645 10645 10646 10646 10646 10646 10646 10646 10646 10646 10646 10645 10645 10645 10644 10643 10643 10642 10642 10642 10642 10642 10642 10642 10642 10642 10641 10640 10640 10639 10638 10638 10637 10637 10636 10636 10635 10635 10634 10633 10632 10632 10631 10631 10630 10629 10628 10626 10625 10624 10623 10622 10621 10620 10620 10619 10618 10618 10617 10616 10615 10614 10613 10612 10610 10610 10609 10609
10626 10627 10628 10629 10631 10632 10632 10633 10634 10635 10636 10637 10638 10639 10639 10640 10640 10641 10642 10642 10643 10643 10643 10642 10642 10642 10642 10642 10642 10642 10641 10641 10640 10640 10639 10638 10637 10637 10638 10638 10638 10638 10638 10638 10637 10637 10636 10636 10635 10634 10634 10633 10632 10632 10631 10630 10630 10629 10628 10627 10626 10626 10625 10624 10623 10622 10621 10620 10619 10618 10617 10616 10616 10615 10614 10613 10612 10611 10610 10609 10608 10607 10605 10604 10603 10603
10622 10623 10624 10626 10627 10628 10629 10630 10631 10633 10633 10634 10635 10635 10636 10637 10637 10638 10639 10639 10639 10639 10639 10639 10639 10639 10638 10638 10639 10638 10638 10637 10637 10636 10635 10634 10634 10634 10634 10634 10634 10634 10634 10634 10633 10633 10632 10631 10631 10630 10629 10629 10628 10627 10627 10626 10625 10624 10623 10622 10622 10621 10620 10619 10618 10617 10616 10615 10614 10613 10613 10612 10611 10610 10609 10608 10607 10606 10605 10604 10603 10602 10600 10599 10598 10597
10618 10619 10620 10621 10623 10624 10626 10627 10628 10629 10630 10631 10631 10632 10633 10633 10634 10635 10635 10636 10636 10636 10636 10636 10636 10636 10636 10635 10635 10635 10634 10634 10633 10632 10631 10631 10630 10630 10630 10630 10630 10630 10629 10629 10629 10628 10628 10627 10626 10625 10624 10624 10623 10623 10622 10621 10620 10619 10618 10617 10616 10616 10615 10614 10613 10612 10611 10610 10609 10608 10607 10607 10606 10605 10604 10603 10602 10601 10600 10599 10598 10596 10595 10593 10592 10591
10614 10615 10616 10618 10619 10620 10621 10623 10625 10626 10627 10628 10628 10628 10629 10631 10632 10632 10633 10632 10631 10631 10632 10633 10633 10634 10634 10633 10632 10631 10631 10630 10628 10627 10627 10627 10627 10627 10626 10626 10626 10625 10625 10624 10624 10623 10623 10622 10621 10621 10620 10619 10619 10618 10617 10616 10615 10614 10613 10612 10611 10610 10609 10608 10607 10606 10605 10604 10603 10602 10602 10601 10600 10600 10598 10597 10596 10595 10594 10593 10592 10590 10588 10587 10586 10584
10609 10611 10612 10614 10614 10616 10617 10619 10621 10622 10623 10624 10624 10625 10626 10627 10629 10630 10630 10628 10627 10627 10628 10629 10630 10631 10631 10631 10630 10628 10627 10626 10624 10623 10623 10623 10623 10623 10622 10622 10621 10620 10620 10620 10619 10618 10618 10617 10616 10616 10615 10615 10614 10613 10612 10612 10611 10610 10608 10607 10606 10604 10603 10602 10601 10600 10599 10598 10598 10596 10595 10594 10593 10593 10592 10591 10589 10588 10587 10586 10585 10584 10582 10581 10579 10578
10605 10607 10608 10609 10610 10611 10613 10615 10617 10618 10619 10620 10620 10621 10622 10624 10625 10626 10626 10624 10623 10623 10624 10625 10625 10626 10627 10628 10628 10625 10623 10622 10621 10619 10619 10618 10618 10618 10617 10617 10616 10616 10615 10615 10614 10613 10613 10612 10611 10610 10610 10609 10609 10608 10607 10606 10605 10604 10603 10602 10600 10599 10598 10596 10595 10594 10593 10592 10591 10590 10589 10588 10586 10585 10584 10583 10582 10581 10580 10579 10578 10577 10575 10574 10573 10572
10601 10602 10604 10605 10606 10607 10608 10611 10613 10614 10614 10615 10615 10617 10618 10620 10621 10621 10621 10620 10620 10620 10619 10620 10620 10621 10622 10624 10624 10622 10620 10619 10617 10616 10615 10614 10613 10612 10612 10611 10611 10610 10610 10609 10609 10608 10608 10607 10606 10605 10604 10603 10603 10602 10601 10600 10600 10599 10597 10596 10595 10593 10592 10590 10589 10588 10587 10586 10585 10583 10582 10581 10579 10578 10577 10576 10575 10573 10572 10571 10570 10569 10568 10567 10565 10564
10597 10598 10599 10600 10601 10602 10604 10607 10609 10609 10609 10610 10611 10612 10614 10616 10616 10616 10616 10616 10616 10615 10615 10615 10615 10615 10616 10617 10617 10616 10615 10614 10613 10612 10611 10610 10609 10608 10607 10606 10605 10604 10604 10603 10603 10602 10602 10601 10600 10599 10598 10597 10597 10596 10595 10594 10593 10592 10591 10590 10588 10587 10585 10584 10582 10581 10580 10579 10578 10576 10575 10573 10572 10571 10569 10568 10567 10566 10564 10563 10562 10561 10560 10559 10557 10556
10592 10593 10595 10596 10597 10598 10599 10602 10603 10604 10604 10606 10607 10608 10610 10612 10611 10611 10610 10611 10611 10610 10610 10610 10610 10610 10610 10611 10611 10610 10609 10609 10608 10607 10606 10605 10604 10603 10602 10601 10600 10599 10598 10598 10597 10596 10595 10594 10594 10593 10592 10591 10590 10589 10588 10587 10586 10585 10584 10583 10581 10580 10578 10576 10575 10574 10572 10571 10570 10569 10567 10566 10564 10563 10562 10560 10559 10558 10556 10555 10554 10553 10552 10550 10549 10547
10587 10588 10590 10591 10592 10594 10595 10596 10598 10599 10600 10601 10602 10603 10605 10607 10606 10605 10605 10605 10605 10605 10605 10605 10604 10604 10604 10604 10604 10604 10603 10603 10602 10601 10600 10599 10598 10597 10597 10596 10595 10594 10593 10592 10591 10590 10589 10588 10587 10586 10585 10584 10583 10582 10581 10580 10579 10578 10576 10575 10573 10572 10570 10569 10567 10566 10564 10563 10562 10561 10559 10558 10556 10554 10553 10552 10550 10549 10547 10546 10545 10544 10543 10541 10540 10538
10582 10583 10585 10586 10587 10589 10590 10591 10593 10594 10595 10596 10597 10598 10600 10601 10601 10600 10600 10600 10600 10599 10599 10599 10599 10599 10599 10598 10598 10598 10597 10596 10596 10595 10594 10593 10592 10592 10591 10590 10589 10588 10587 10586 10585 10584 10583 10582 10580 10579 10578 10577 10575 10574 10573 10572 10571 10570 10568 10567 10565 10564 10562 10561 10560 10558 10556 10555 10553 10552 10551 10549 10548 10546 10545 10543 10542 10540 10539 10537 10536 10535 10533 10532 10530 10529
10576 10578 10580 10581 10583 10584 10585 10586 10588 10589 10590 10591 10592 10593 10593 10594 10594 10594 10594 10594 10594 10594 10594 10594 10594 10593 10593 10592 10592 10591 10591 10590 10589 10589 10588 10587 10586 10586 10585 10584 10584 10582 10581 10580 10578 10577 10576 10575 10573 10572 10570 10569 10568 10567 10565 10564 10563 10562 10560 10559 10558 10556 10555 10554 10552 10551 10549 10547 10545 10544 10542 10541 10539 10538 10536 10535 10533 10532 10530 10529 10527 10526 10524 10523 10521 10520
10571 10573 10575 10576 10578 10579 10580 10581 10582 10583 10584 10586 10586 10587 10587 10588 10588 10588 10588 10588 10588 10588 10588 10588 10588 10587 10587 10586 10585 10585 10584 10584 10583 10582 10582 10581 10580 10580 10579 10578 10577 10576 10574 10573 10571 10570 10569 10568 10566 10565 10563 10562 10560 10559 10558 10557 10556 10554 10553 10552 10550 10549 10548 10546 10545 10543 10542 10540 10538 10536 10534 10533 10531 10529 10528 10526 10525 10523 10522 10520 10519 10517 10515 10514 10512 10511
10566 10568 10569 10570 10572 10573 10574 10576 10577 10578 10579 10580 10581 10581 10581 10581 10582 10582 10582 10582 10582 10582 10582 10581 10581 10580 10580 10579 10579 10578 10578 10577 10577 10576 10575 10575 10574 10573 10572 10571 10570 10569 10567 10566 10564 10563 10562 10560 10559 10558 10557 10555 10554 10552 10551 10550 10549 10548 10546 10545 10544 10542 10540 10539 10537 10536 10534 10532 10530 10528 10526 10524 10522 10520 10519 10517 10515 10514 10512 10511 10509 10508 10506 10504 10503 10501
10561 10562 10563 10565 10566 10567 10568 10570 10571 10572 10573 10574 10575 10576 10576 10576 10576 10576 10576 10576 10576 10576 10575 10575 10574 10574 10573 10573 10572 10572 10571 10571 10570 10569 10569 10568 10567 10566 10565 10564 10563 10561 10560 10559 10557 10556 10555 10553 10552 10551 10550 10549 10548 10546 10545 10543 10542 10541 10539 10538 10536 10534 10532 10530 10528 10527 10525 10523 10521 10519 10517 10515 10513 10511 10509 10507 10506 10504 10502 10500 10499 10497 10495 10494 10492 10491
10555 10557 10558 10559 10560 10561 10563 10564 10565 10567 10568 10569 10570 10570 10570 10570 10570 10570 10570 10570 10570 10570 10569 10569 10568 10568 10567 10567 10566 10565 10565 10564 10563 10562 10562 10561 10560 10559 10558 10557 10555 10554 10553 10551 10550 10549 10548 10546 10545 10544 10543 10542 10540 10539 10538 10536 10535 10533 10532 10530 10528 10526 10524 10522 10519 10517 10515 10513 10511 10510 10507 10505 10503 10500 10498 10496 10494 10492 10491 10489 10487 10485 10483 10481 10480 10478
10550 10552 10553 10554 10555 10556 10558 10559 10560 10561 10563 10563 10564 10564 10564 10564 10564 10564 10564 10564 10564 10563 10563 10563 10562 10562 10561 10560 10559 10559 10558 10557 10556 10555 10555 10554 10553 10552 10550 10549 10548 10546 10545 10544 10543 10541 10540 10539 10537 10536 10535 10533 10532 10530 10529 10528 10526 10525 10523 10521 10519 10517 10514 10512 10510 10507 10505 10503 10501 10499 10497 10494 10492 10489 10487 10484 10482 10480 10478 10476 10474 10472 10470 10468 10466 10465